• In Moldova, Republic
  • List of Countries
  • For 7 days
  • Water Temperature
  • Satellite Maps
  • Weather Map
  • Weather Widgets
  • user-avatar
    Login

    Hourly Weather Hobart

    Today, 19 November, Sunday

    Time Temperature Precipitation Wind Pressure Humidity
    00:00 +14°C° 0 mm 3 mps 753 mmHg 94%
    01:00 +13°C° 0 mm 3 mps 753 mmHg 95%
    02:00 +13°C° 0 mm 3 mps 753 mmHg 95%
    03:00 +13°C° 0 mm 3 mps 753 mmHg 95%
    04:00 +13°C° 0 mm 3 mps 753 mmHg 95%
    05:00 +16°C° 0 mm 2 mps 754 mmHg 86%
    06:00 +18°C° 0 mm 2 mps 754 mmHg 77%
    07:00 +20°C° 0 mm 2 mps 754 mmHg 68%
    08:00 +23°C° 0 mm 2 mps 754 mmHg 59%
    09:00 +26°C° 0 mm 2 mps 754 mmHg 50%
    10:00 +28°C° 0 mm 1 mps 754 mmHg 42%
    11:00 +29°C° 0 mm 2 mps 754 mmHg 41%
    12:00 +29°C° 0 mm 2 mps 754 mmHg 40%
    13:00 +30°C° 0 mm 3 mps 754 mmHg 39%
    14:00 +29°C° 0 mm 3 mps 754 mmHg 40%
    15:00 +29°C° 0 mm 3 mps 754 mmHg 42%
    16:00 +28°C° 0 mm 3 mps 754 mmHg 43%
    17:00 +26°C° 0 mm 3 mps 754 mmHg 52%
    18:00 +24°C° 0 mm 2 mps 754 mmHg 60%
    19:00 +21°C° 0 mm 2 mps 754 mmHg 68%
    20:00 +19°C° 0 mm 2 mps 755 mmHg 75%
    21:00 +18°C° 0 mm 1 mps 755 mmHg 83%
    22:00 +16°C° 0 mm 1 mps 755 mmHg 90%
    23:00 +15°C° 0 mm 1 mps 755 mmHg 90%

    Tomorrow, 20 November, Monday

    Time Temperature Precipitation Wind Pressure Humidity
    00:00 +15°C° 0 mm 1 mps 755 mmHg 90%
    01:00 +15°C° 0 mm 1 mps 755 mmHg 90%
    02:00 +15°C° 0 mm 1 mps 755 mmHg 89%
    03:00 +15°C° 0 mm 1 mps 755 mmHg 89%
    04:00 +15°C° 0 mm 1 mps 755 mmHg 89%
    05:00 +18°C° 0 mm 1 mps 755 mmHg 81%
    06:00 +20°C° 0 mm 1 mps 756 mmHg 74%
    07:00 +21°C° 0 mm 1 mps 756 mmHg 67%
    08:00 +24°C° 0 mm 1 mps 756 mmHg 56%
    09:00 +26°C° 0 mm 2 mps 756 mmHg 45%
    10:00 +29°C° 0 mm 2 mps 756 mmHg 34%
    11:00 +30°C° 0 mm 2 mps 756 mmHg 31%
    12:00 +31°C° 0 mm 3 mps 755 mmHg 28%
    13:00 +31°C° 0 mm 3 mps 755 mmHg 25%
    14:00 +32°C° 0 mm 4 mps 755 mmHg 27%
    15:00 +30°C° 0 mm 4 mps 754 mmHg 29%
    16:00 +30°C° 0 mm 4 mps 754 mmHg 30%
    17:00 +27°C° 0 mm 4 mps 754 mmHg 40%
    18:00 +25°C° 0 mm 3 mps 754 mmHg 50%
    19:00 +21°C° 0 mm 3 mps 755 mmHg 59%
    20:00 +20°C° 0 mm 3 mps 755 mmHg 66%
    21:00 +18°C° 0 mm 3 mps 755 mmHg 72%
    22:00 +16°C° 0 mm 2 mps 755 mmHg 79%
    23:00 +16°C° 0 mm 2 mps 755 mmHg 80%

    Day after tomorrow, 21 November, Tuesday

    Time Temperature Precipitation Wind Pressure Humidity
    00:00 +16°C° 0 mm 3 mps 755 mmHg 82%
    01:00 +14°C° 0 mm 3 mps 754 mmHg 83%
    02:00 +14°C° 0 mm 3 mps 754 mmHg 85%
    03:00 +14°C° 0 mm 3 mps 754 mmHg 86%
    04:00 +13°C° 0 mm 3 mps 754 mmHg 87%
    05:00 +16°C° 0 mm 2 mps 754 mmHg 78%
    06:00 +18°C° 0 mm 2 mps 754 mmHg 69%
    07:00 +20°C° 0 mm 2 mps 754 mmHg 60%
    08:00 +24°C° 0 mm 3 mps 754 mmHg 50%
    09:00 +26°C° 0 mm 3 mps 754 mmHg 41%
    10:00 +29°C° 0 mm 3 mps 754 mmHg 31%
    11:00 +30°C° 0 mm 3 mps 754 mmHg 28%
    12:00 +32°C° 0 mm 4 mps 753 mmHg 24%
    13:00 +33°C° 0 mm 4 mps 753 mmHg 21%
    14:00 +33°C° 0 mm 4 mps 753 mmHg 23%
    15:00 +32°C° 0 mm 5 mps 752 mmHg 24%
    16:00 +32°C° 0 mm 5 mps 752 mmHg 25%
    17:00 +28°C° 0 mm 5 mps 752 mmHg 34%
    18:00 +26°C° 0 mm 4 mps 752 mmHg 43%
    19:00 +23°C° 0 mm 4 mps 752 mmHg 52%
    20:00 +21°C° 0 mm 4 mps 752 mmHg 58%
    21:00 +19°C° 0 mm 3 mps 752 mmHg 63%
    22:00 +17°C° 0 mm 3 mps 752 mmHg 69%
    23:00 +16°C° 0 mm 3 mps 752 mmHg 71%

    22 November, Wednesday

    Time Temperature Precipitation Wind Pressure Humidity
    00:00 +16°C° 0 mm 3 mps 752 mmHg 74%
    01:00 +14°C° 0 mm 3 mps 751 mmHg 77%
    02:00 +14°C° 0 mm 3 mps 751 mmHg 77%
    03:00 +13°C° 0 mm 3 mps 751 mmHg 77%
    04:00 +13°C° 0 mm 3 mps 751 mmHg 77%
    05:00 +16°C° 0 mm 3 mps 751 mmHg 69%
    06:00 +18°C° 0 mm 3 mps 751 mmHg 61%
    07:00 +20°C° 0 mm 3 mps 751 mmHg 53%
    08:00 +24°C° 0 mm 3 mps 751 mmHg 44%
    09:00 +27°C° 0 mm 3 mps 751 mmHg 34%
    10:00 +30°C° 0 mm 3 mps 751 mmHg 25%
    11:00 +32°C° 0 mm 4 mps 750 mmHg 23%
    12:00 +33°C° 0 mm 4 mps 750 mmHg 21%
    13:00 +34°C° 0 mm 4 mps 749 mmHg 19%
    14:00 +33°C° 0 mm 5 mps 749 mmHg 22%
    15:00 +33°C° 0 mm 5 mps 748 mmHg 24%
    16:00 +32°C° 0 mm 5 mps 748 mmHg 26%
    17:00 +29°C° 0 mm 5 mps 748 mmHg 35%
    18:00 +26°C° 0 mm 4 mps 748 mmHg 44%
    19:00 +23°C° 0 mm 4 mps 748 mmHg 52%
    20:00 +21°C° 0 mm 3 mps 748 mmHg 59%
    21:00 +19°C° 0 mm 3 mps 748 mmHg 67%
    22:00 +17°C° 0 mm 3 mps 748 mmHg 74%
    23:00 +17°C° 0 mm 3 mps 748 mmHg 76%

    23 November, Thursday

    Time Temperature Precipitation Wind Pressure Humidity
    00:00 +16°C° 0 mm 3 mps 748 mmHg 78%
    01:00 +16°C° 0 mm 3 mps 747 mmHg 80%
    02:00 +14°C° 0 mm 3 mps 747 mmHg 83%
    03:00 +14°C° 0 mm 3 mps 747 mmHg 85%
    04:00 +13°C° 0 mm 3 mps 746 mmHg 87%
    05:00 +16°C° 0 mm 3 mps 746 mmHg 79%
    06:00 +18°C° 0 mm 3 mps 747 mmHg 70%
    07:00 +20°C° 0 mm 3 mps 747 mmHg 61%
    08:00 +24°C° 0 mm 3 mps 747 mmHg 51%
    09:00 +27°C° 0 mm 3 mps 747 mmHg 42%
    10:00 +29°C° 0 mm 3 mps 746 mmHg 32%
    11:00 +30°C° 0 mm 3 mps 746 mmHg 32%
    12:00 +30°C° 0 mm 3 mps 745 mmHg 31%
    13:00 +30°C° 0 mm 4 mps 745 mmHg 30%
    14:00 +28°C° 0.2 mm 4 mps 745 mmHg 40%
    15:00 +26°C° 0.2 mm 3 mps 745 mmHg 51%
    16:00 +24°C° 0.2 mm 3 mps 744 mmHg 61%
    17:00 +22°C° 0.2 mm 3 mps 745 mmHg 69%
    18:00 +20°C° 0.2 mm 2 mps 745 mmHg 76%
    19:00 +19°C° 0.2 mm 1 mps 745 mmHg 84%
    20:00 +18°C° 0 mm 1 mps 745 mmHg 87%
    21:00 +16°C° 0 mm 1 mps 745 mmHg 91%
    22:00 +15°C° 0 mm 1 mps 745 mmHg 94%
    23:00 +15°C° 0 mm 1 mps 745 mmHg 94%

    24 November, Friday

    Time Temperature Precipitation Wind Pressure Humidity
    00:00 +15°C° 0 mm 1 mps 745 mmHg 94%
    01:00 +15°C° 0 mm 1 mps 744 mmHg 94%
    02:00 +15°C° 0.1 mm 1 mps 745 mmHg 95%
    03:00 +15°C° 0.1 mm 1 mps 745 mmHg 95%
    04:00 +15°C° 0.1 mm 1 mps 745 mmHg 96%
    05:00 +15°C° 0.9 mm 1 mps 745 mmHg 94%
    06:00 +16°C° 0.9 mm 2 mps 746 mmHg 92%
    07:00 +17°C° 0.9 mm 2 mps 746 mmHg 91%
    08:00 +17°C° 0.6 mm 2 mps 747 mmHg 90%
    09:00 +18°C° 0.6 mm 3 mps 747 mmHg 89%
    10:00 +18°C° 0.6 mm 3 mps 747 mmHg 88%
    11:00 +17°C° 0.3 mm 3 mps 748 mmHg 89%
    12:00 +17°C° 0.3 mm 4 mps 748 mmHg 91%
    13:00 +15°C° 0.3 mm 4 mps 748 mmHg 93%
    14:00 +14°C° 0 mm 4 mps 748 mmHg 92%
    15:00 +14°C° 0 mm 4 mps 748 mmHg 91%
    16:00 +13°C° 0 mm 4 mps 749 mmHg 91%
    17:00 +13°C° 0 mm 3 mps 749 mmHg 91%
    18:00 +12°C° 0 mm 3 mps 750 mmHg 91%
    19:00 +12°C° 0 mm 3 mps 750 mmHg 91%
    20:00 +11°C° 0 mm 3 mps 751 mmHg 92%
    21:00 +11°C° 0 mm 3 mps 751 mmHg 93%
    22:00 +10°C° 0 mm 2 mps 751 mmHg 94%
    23:00 +10°C° 0 mm 2 mps 751 mmHg 93%
    Show more